Dewpoint
54 54 56 55 58 66 66 65 65 67 68 68 68 67 67 65 66 65 66 66 67 66 67 65 64 64 65 65 66 66 66 67 67 68 69 69 67 66 67 69 68 67 68 69 68 68 68 67 68 68 67 67 67 68 67 67 67 67 67 67 65 63 65 65 65 65 63 62 63 63 63 64 64 64 64 63 64 64 64 64 65 65 65 65 64
60 60 57 60 60 65 67 66 66 65 66 67 68 68 66 65 65 65 66 66 66 66 67 66 65 65 65 65 66 65 64 64 66 66 67 68 67 66 67 67 66 66 68 67 68 68 67 70 69 69 68 68 68 68 68 67 66 66 66 65 65 64 64 65 65 64 61 60 60 60 61 62 63 63 62 63 64 65 64 64 65 64 64 64 65
58 56 55 58 62 64 64 66 66 66 66 66 67 68 66 65 64 65 66 66 66 67 66 65 66 66 66 67 65 65 67 68 67 68 67 66 67 67 67 66 66 66 66 67 68 68 67 68 67 69 68 68 67 67 67 67 67 66 66 66 63 64 64 66 65 65 61 61 61 59 58 57 60 61 62 63 63 63 64 63 64 65 64 64 65
55 55 54 58 61 63 65 65 66 66 66 65 66 66 64 64 63 63 65 65 64 65 65 66 66 66 67 66 68 67 65 68 67 67 67 66 66 67 67 66 66 65 65 65 66 67 68 67 68 68 69 68 67 67 67 66 66 67 66 65 64 62 63 64 66 65 64 61 57 58 57 56 55 57 59 62 63 63 62 62 64 64 64 64 64
53 54 53 58 61 63 65 65 66 66 65 65 66 64 64 64 64 64 65 65 65 65 65 66 66 65 66 66 67 67 67 67 67 66 66 67 66 67 67 65 66 65 65 66 65 67 68 68 68 67 67 69 66 65 65 65 65 65 66 65 64 64 63 64 65 65 65 65 62 59 57 55 55 58 58 59 62 62 63 63 63 63 63 63 64
55 54 52 57 61 62 63 63 64 65 66 67 63 63 62 63 65 64 65 65 65 66 65 65 65 65 65 64 63 64 64 64 64 64 65 65 65 66 65 65 67 67 67 67 65 66 67 68 68 66 67 68 68 67 66 64 64 64 65 65 64 64 63 62 62 64 65 64 64 64 62 58 57 58 57 55 60 62 62 63 63 63 63 63 63
53 52 53 56 59 62 63 63 64 65 65 62 63 62 63 63 64 64 63 63 64 65 64 64 64 64 64 64 64 64 63 64 66 67 66 66 66 66 66 66 65 65 66 65 66 67 67 67 67 67 66 67 66 67 66 66 62 61 63 64 64 63 64 62 62 62 64 64 64 64 63 63 62 57 56 57 55 59 61 61 62 63 63 63 63
50 51 54 56 57 61 62 63 64 64 62 62 61 62 63 64 64 63 63 63 64 64 63 64 64 64 64 63 64 64 64 64 66 66 66 66 66 65 66 66 65 65 65 64 65 65 66 67 67 67 66 64 65 66 66 67 65 63 65 66 65 66 64 62 61 63 62 62 64 64 63 64 63 62 58 57 56 55 57 61 62 62 62 62 60
50 53 53 55 56 59 63 65 62 60 61 60 60 62 63 63 63 63 63 63 64 64 64 64 64 64 64 63 64 64 66 66 66 66 65 65 65 65 65 65 65 65 65 64 65 64 65 66 66 67 67 66 65 64 65 65 67 65 65 66 64 65 66 64 63 62 63 62 62 63 64 63 62 61 61 59 58 56 55 57 58 61 61 59 59
41 44 54 58 60 63 63 62 62 61 61 61 61 62 63 63 63 62 62 63 64 64 64 65 65 66 65 65 64 64 65 65 65 64 65 65 64 64 65 64 65 64 64 64 64 62 64 65 65 64 66 65 65 64 64 66 66 65 65 66 65 65 66 65 64 64 63 63 63 63 61 62 60 61 61 60 59 58 55 56 57 57 56 57 57
39 43 50 58 58 61 62 62 62 61 61 61 60 61 62 63 62 61 62 64 64 64 63 63 64 65 66 65 65 64 64 64 63 63 64 64 64 63 64 64 65 65 66 65 64 65 66 65 65 65 64 65 63 62 64 63 67 66 66 66 65 65 65 65 64 63 63 63 64 63 61 61 60 59 59 60 59 58 57 56 57 58 54 54 55
49 50 54 58 59 59 61 61 61 61 61 60 60 61 63 63 61 62 62 64 64 64 63 63 63 64 65 65 65 64 64 63 64 63 64 63 63 63 64 64 63 64 65 65 65 67 67 67 67 66 66 66 66 66 66 65 65 66 66 66 65 66 66 65 64 63 63 63 63 63 63 62 62 61 60 61 59 58 57 55 56 56 52 52 51
56 56 57 57 58 58 58 59 61 62 60 60 60 61 63 61 61 62 62 63 64 63 62 62 62 64 65 65 65 65 64 64 64 64 64 63 63 62 62 63 63 63 63 63 65 66 66 66 66 66 66 65 65 65 68 64 65 65 65 64 64 64 65 65 64 63 63 62 62 65 65 63 62 63 63 61 61 61 60 56 55 55 52 51 50
57 57 57 57 58 58 57 58 60 60 60 61 61 62 62 61 61 61 62 63 63 63 63 62 62 64 64 64 64 64 64 64 64 64 64 64 64 63 63 62 62 62 62 64 65 65 65 66 66 65 65 65 66 67 66 66 66 63 64 64 63 65 65 65 64 64 64 64 64 62 64 62 64 64 63 63 61 60 58 56 54 54 49 46 46
57 55 56 56 57 57 59 59 59 59 62 61 61 61 62 62 61 61 62 63 63 63 63 62 63 63 64 64 64 64 64 64 64 64 64 65 64 63 62 63 62 61 62 64 64 65 65 65 65 65 64 65 65 66 67 66 67 65 63 65 64 65 65 64 64 63 64 63 64 63 63 62 62 62 63 62 60 60 59 57 55 51 49 47 44
56 56 57 58 58 60 59 58 59 60 62 61 62 62 63 62 61 61 62 62 62 63 63 63 63 64 65 65 64 64 64 65 64 63 63 64 63 63 62 63 63 63 63 64 65 65 64 64 64 64 64 64 64 65 65 65 67 66 64 64 64 62 65 64 64 63 64 64 63 63 63 62 62 62 62 62 61 62 62 59 57 52 46 45 46
57 58 57 58 58 58 59 59 59 60 60 62 62 62 62 62 62 61 62 63 63 62 63 63 64 64 65 65 65 65 65 64 63 62 62 62 62 62 62 62 63 63 63 64 64 65 65 64 63 63 65 65 64 64 63 63 66 66 65 64 64 63 64 62 64 63 64 64 63 63 63 63 64 64 64 64 64 63 62 62 61 56 48 46 43
56 57 58 58 59 58 60 60 60 59 61 61 62 63 63 63 62 61 61 62 63 63 63 63 64 64 64 65 65 65 64 64 63 62 62 62 63 63 62 63 62 62 62 62 65 64 65 64 63 63 64 64 64 63 62 61 65 66 64 65 64 64 64 64 64 63 63 63 63 62 63 62 63 62 62 63 63 63 62 62 61 59 55 47 45
56 56 57 58 57 58 58 59 59 60 62 61 62 62 62 62 62 63 61 62 62 63 63 63 63 64 64 64 64 65 65 65 65 63 63 62 62 62 62 62 63 62 61 63 63 62 64 64 63 61 63 63 63 63 63 62 63 63 63 65 65 65 64 64 64 64 64 63 63 62 62 62 63 62 62 62 63 63 62 64 62 59 56 55 46
55 56 56 57 57 58 58 59 59 60 61 60 61 61 61 62 61 61 62 61 63 63 63 63 63 63 63 64 64 63 63 63 63 63 63 61 62 62 61 62 63 61 62 62 61 62 62 62 61 61 62 62 63 61 62 62 63 63 63 61 63 64 64 63 63 62 61 63 63 62 62 62 63 62 61 62 62 62 61 61 60 59 57 56 55
55 55 56 56 57 57 57 58 59 61 61 61 62 61 60 61 62 62 61 61 62 63 64 63 63 63 63 63 63 62 64 63 62 62 62 63 61 61 62 62 60 61 61 61 61 60 58 59 57 58 58 61 62 62 63 62 62 61 62 62 60 60 58 60 60 62 61 62 61 60 61 62 62 61 61 62 61 61 61 61 58 58 57 55 54
55 55 55 56 56 58 58 57 58 59 61 60 60 60 61 61 61 61 61 63 61 62 63 63 61 63 62 63 63 63 63 62 61 62 62 65 61 62 62 60 61 60 60 59 58 61 60 60 57 56 58 57 60 61 62 61 59 61 61 62 60 58 56 57 59 59 59 60 63 60 60 60 61 60 61 60 60 60 58 58 58 57 53 55 55
52 53 54 54 55 56 56 55 56 57 60 59 59 59 60 60 60 61 61 61 62 62 62 63 63 62 62 63 63 63 62 61 61 61 63 64 62 62 60 61 60 59 61 60 59 59 58 60 57 60 56 57 57 58 60 61 60 60 59 60 60 57 59 57 58 58 55 59 61 61 60 61 61 61 62 63 63 62 58 56 56 55 52 51 50
51 51 51 52 53 54 55 56 56 56 57 58 58 58 59 60 59 59 60 61 61 61 62 62 62 61 62 62 62 62 61 61 60 60 62 63 62 61 61 60 59 59 58 62 59 57 58 60 59 57 57 57 58 56 60 59 56 57 58 58 57 59 58 58 58 55 53 58 61 61 60 60 61 62 61 61 61 61 61 58 57 53 53 49 53
49 49 50 51 50 50 52 53 54 56 57 58 58 58 59 59 59 60 61 61 61 61 61 61 62 61 61 63 62 61 61 61 61 61 62 63 62 61 61 59 60 59 59 59 58 59 59 58 59 56 55 57 56 54 57 58 58 59 59 59 57 57 59 57 57 54 57 58 60 61 60 60 61 61 61 60 59 60 59 58 55 52 46 49 54
48 48 48 48 48 48 49 50 52 53 55 57 57 58 58 59 59 61 60 61 62 61 62 61 61 61 61 62 62 61 61 61 60 62 62 61 62 62 62 60 58 58 58 59 58 56 54 52 53 54 53 54 56 54 55 56 54 57 58 61 58 59 57 56 53 57 56 58 60 61 61 61 61 62 60 60 59 58 57 56 53 46 41 47 49
46 46 46 46 46 47 47 47 48 50 52 54 55 55 56 58 59 60 61 61 62 62 61 60 59 61 60 61 61 60 61 61 61 60 61 61 62 63 61 59 58 57 56 57 56 57 58 55 56 55 55 57 54 52 56 57 56 55 57 57 59 58 57 59 56 56 55 59 59 60 61 61 60 61 60 60 59 58 57 54 53 55 47 48 52
43 44 43 44 44 45 46 46 46 47 49 51 53 54 54 55 59 60 60 61 60 61 60 60 59 60 60 60 60 60 59 60 60 60 61 62 61 61 61 60 57 55 56 54 54 54 57 57 52 54 53 54 51 50 49 50 51 55 57 57 58 59 58 57 58 57 57 57 60 61 61 61 61 61 61 59 58 57 56 54 56 54 55 47 49
41 42 42 42 43 43 44 45 45 46 47 49 51 52 54 54 55 60 59 61 61 60 60 60 60 60 60 58 58 60 62 61 62 61 60 60 60 60 61 58 54 55 57 53 54 54 56 51 52 55 56 55 53 49 46 46 48 50 53 56 57 56 57 58 56 57 56 56 60 61 60 61 60 56 50 51 52 57 61 55 55 55 56 53 52
40 40 41 41 41 42 43 44 44 45 46 47 49 50 52 53 54 57 59 60 61 60 59 59 60 60 59 59 60 61 60 61 62 60 60 60 59 59 58 55 55 55 55 55 54 55 51 52 55 55 54 53 50 48 43 41 42 47 52 51 56 57 57 57 56 56 56 56 59 60 61 59 54 53 49 44 43 44 48 54 55 58 57 56 55
38 39 40 40 41 41 42 42 43 45 46 47 48 50 51 52 53 54 55 59 60 60 60 60 59 59 59 59 60 61 60 60 60 59 59 58 56 56 55 56 57 57 57 56 54 57 56 54 53 52 50 49 46 41 39 38 39 41 48 52 53 56 57 57 56 56 56 56 56 55 55 55 55 56 51 43 42 41 41 41 42 44 50 60 56
38 38 39 39 40 40 41 42 43 44 45 46 47 49 50 51 51 52 54 58 59 60 59 58 58 58 58 59 58 59 60 60 61 58 58 56 56 58 57 57 57 58 58 58 56 54 53 52 51 48 47 46 43 40 37 38 38 39 42 49 53 53 56 56 55 55 56 56 55 53 54 56 56 56 54 51 49 42 41 41 41 41 41 41 46
37 38 38 38 38 39 40 41 42 43 44 47 47 48 48 50 50 50 52 52 53 55 58 58 58 58 57 57 57 56 56 57 56 56 56 56 56 56 56 56 57 57 57 56 54 53 51 50 47 45 43 42 41 38 37 37 38 38 38 46 50 53 54 56 54 56 56 57 54 53 55 56 54 56 52 53 53 53 44 42 43 44 45 41 40
37 38 38 38 39 39 39 41 42 44 45 47 47 48 48 49 49 49 50 50 50 51 51 54 57 58 58 56 55 54 54 54 54 54 55 55 56 56 57 57 57 56 56 55 53 51 50 48 45 42 41 40 39 38 36 37 37 37 37 41 52 54 57 56 55 57 58 56 57 56 56 56 55 55 55 57 53 52 52 52 53 53 52 51 46
37 37 38 38 39 39 40 41 42 44 44 46 46 47 47 47 48 48 48 49 49 49 49 49 50 52 55 55 53 53 53 53 53 53 53 54 54 54 55 56 57 57 56 53 52 50 48 47 45 43 42 41 40 36 36 36 36 36 37 43 56 58 57 56 56 57 56 57 57 57 55 57 55 51 46 43 53 57 54 55 54 54 54 54 54
36 36 37 38 39 41 41 42 43 43 43 44 45 46 46 46 47 47 47 47 47 47 47 47 47 49 49 50 52 52 52 52 51 52 53 53 53 53 53 54 54 55 54 55 52 50 49 47 47 46 42 39 38 35 35 35 35 36 39 54 58 58 57 56 55 55 56 56 56 57 56 55 51 49 42 39 42 50 55 55 57 56 54 54 54
36 36 37 38 38 40 42 42 42 42 42 42 43 45 45 44 44 45 46 46 46 46 47 47 47 47 48 49 49 50 51 51 52 51 51 52 52 52 52 52 50 50 49 48 49 50 50 49 47 44 42 40 38 36 35 35 35 35 41 51 52 52 57 57 56 57 56 53 53 57 56 53 50 45 39 38 41 48 55 55 53 53 54 54 54
37 36 36 37 37 38 39 40 40 41 41 42 41 42 43 43 43 44 44 45 45 46 47 47 47 47 47 47 48 48 48 49 49 49 49 50 51 50 50 49 48 47 46 46 46 47 47 48 47 46 43 41 39 37 35 35 35 36 40 50 49 49 53 51 55 59 58 52 46 49 51 47 44 41 36 37 39 48 54 55 56 56 56 54 53
38 38 37 37 37 38 37 38 38 39 41 42 42 42 41 42 43 43 43 43 44 45 46 47 48 48 48 48 48 48 48 48 48 48 48 48 48 49 50 50 49 46 45 44 45 46 46 46 46 47 48 43 38 37 36 35 35 35 41 48 47 47 45 45 46 48 56 49 43 42 42 41 40 38 36 36 37 44 47 49 51 53 54 55 51
38 38 38 38 38 37 37 37 37 38 39 41 42 41 41 41 42 42 42 42 43 45 46 47 48 48 49 50 50 49 48 48 47 48 49 49 49 50 49 50 46 43 44 45 45 46 45 44 45 45 46 43 38 36 37 35 35 35 38 46 42 39 38 39 42 42 46 51 45 40 39 36 36 36 36 36 36 38 43 45 47 48 50 52 48
37 38 39 38 37 38 37 37 38 38 38 38 39 40 40 41 40 41 41 43 44 45 46 46 47 47 47 48 49 49 49 49 49 49 50 49 50 47 48 45 44 45 46 45 45 44 45 45 43 42 42 43 41 38 37 36 36 35 36 39 37 35 36 40 42 41 42 46 47 42 39 37 36 36 36 36 37 37 38 43 45 45 47 44 42
37 38 38 38 38 38 39 39 40 39 39 38 38 38 38 39 40 40 41 43 43 44 47 46 45 45 45 47 48 49 49 48 49 49 49 48 48 46 45 44 44 45 46 46 46 44 45 45 45 43 41 39 40 42 38 36 36 36 36 36 37 37 38 42 41 39 39 41 44 43 40 37 36 36 36 36 37 37 37 42 43 40 39 39 43
35 35 36 37 37 37 38 39 41 41 41 40 39 38 38 38 39 41 41 41 41 42 43 44 45 44 42 45 45 46 46 45 45 46 47 45 45 44 45 46 45 45 45 45 46 44 44 44 45 44 41 40 40 40 38 38 36 36 36 36 35 37 36 40 38 38 40 41 40 40 40 39 36 36 36 36 36 36 37 39 38 38 38 37 38
35 34 34 35 36 37 37 38 39 40 41 41 40 39 40 39 39 40 40 41 39 38 38 39 39 41 42 40 40 40 41 41 43 44 43 44 46 44 44 46 45 44 43 43 41 43 43 43 43 42 42 40 40 39 38 38 37 35 35 35 35 35 35 38 41 42 40 40 39 40 38 36 36 37 36 36 36 36 37 36 36 36 37 37 43
35 34 35 34 34 35 36 37 38 38 40 41 41 40 39 39 41 42 41 40 41 40 38 37 37 37 38 38 40 40 40 40 40 40 40 40 40 42 42 41 41 40 41 41 40 44 43 41 42 42 41 42 42 41 40 39 37 36 35 35 35 35 35 35 42 42 41 42 38 36 35 36 36 36 36 36 37 37 36 35 35 36 37 42 44
36 37 36 34 34 35 35 36 36 37 37 40 42 40 39 40 42 42 42 42 42 42 41 39 37 38 38 36 38 38 38 38 39 39 40 40 41 39 39 39 40 40 40 40 38 38 37 39 42 41 40 41 43 42 41 42 40 39 39 36 36 35 37 37 37 39 36 36 36 36 37 37 37 38 41 42 41 41 38 37 37 36 41 42 42
37 37 38 37 36 34 35 35 36 36 37 38 40 41 41 42 43 43 43 43 43 43 43 44 42 41 39 38 38 38 37 35 35 37 38 40 40 40 38 37 37 38 39 40 39 39 39 39 40 41 42 40 39 38 38 38 39 38 38 38 40 42 40 39 40 40 39 40 40 40 40 38 38 37 37 37 37 38 39 41 42 44 43 42 42
38 38 39 38 37 37 38 37 36 37 37 37 38 39 42 43 43 44 44 44 43 43 43 43 44 45 44 44 42 37 37 35 35 35 37 37 38 40 38 37 36 37 37 39 38 38 39 40 39 39 40 39 38 37 36 36 36 36 37 37 38 39 39 40 39 37 37 39 40 39 40 43 43 43 41 41 41 43 42 39 41 39 39 40 39
39 39 40 39 38 38 40 39 39 39 39 39 37 37 38 44 44 44 43 43 43 42 42 43 43 44 43 39 39 39 39 39 36 36 36 36 37 39 38 37 36 36 37 38 38 37 38 39 39 38 38 38 37 36 36 34 34 34 34 36 37 37 37 37 37 34 36 38 39 40 39 38 38 35 35 37 37 37 36 38 41 40 38 39 39
38 40 39 39 41 42 41 41 41 42 39 38 37 37 38 40 43 44 42 43 40 40 39 38 35 36 35 37 38 39 39 40 38 37 36 36 34 35 37 37 35 35 35 35 35 36 37 38 39 38 38 37 36 36 34 35 35 35 35 35 35 35 35 35 35 34 35 36 35 36 37 35 35 35 35 34 35 36 35 36 37 36 37 38 37
38 39 39 36 37 38 42 40 41 42 42 42 40 38 37 37 40 43 41 41 40 40 38 37 35 35 35 36 38 39 40 39 38 39 38 35 35 35 34 35 35 35 35 34 34 34 34 34 37 38 36 35 35 34 35 35 35 35 35 35 35 35 35 35 34 34 34 35 34 33 34 34 35 35 34 35 35 36 35 36 36 37 37 36 36